K5TWC Weather Reports


time (UTC)temp
C
wind
direction
speed
KPH
gust
KPH
rain 1hr
cm
rain 24hr
cm
rain mn
cm
humidity
%
barometer
mb
20260906235008 36 162 1.6 9.7 0.00 0.00 0.00 46 1011.3
20260906234519 36 175 3.2 16.1 0.00 0.00 0.00 46 1011.2
20260906234011 37 187 1.6 16.1 0.00 0.00 0.00 46 1011.3
20260906233510 37 141 3.2 11.3 0.00 0.00 0.00 45 1011.2
20260906233026 37 166 1.6 11.3 0.00 0.00 0.00 45 1011.2
20260906232516 36 147 1.6 17.7 0.00 0.00 0.00 47 1011.3
20260906232012 36 171 4.8 17.7 0.00 0.00 0.00 46 1011.3
20260906231529 36 165 0.0 16.1 0.00 0.00 0.00 46 1011.4
20260906231015 36 159 1.6 16.1 0.00 0.00 0.00 46 1011.4
20260906230506 37 120 4.8 14.5 0.00 0.00 0.00 45 1011.4
20260906230014 37 131 1.6 14.5 0.00 0.00 0.00 43 1011.5
20260906225509 37 152 3.2 12.9 0.00 0.00 0.00 44 1011.5
20260906225007 37 168 3.2 11.3 0.00 0.00 0.00 44 1011.5
20260906224532 37 180 0.0 11.3 0.00 0.00 0.00 45 1011.5
20260906224012 37 140 4.8 11.3 0.00 0.00 0.00 45 1011.5
20260906223510 37 172 0.0 12.9 0.00 0.00 0.00 46 1011.6
20260906223025 37 157 0.0 16.1 0.00 0.00 0.00 46 1011.6
20260906222510 36 198 6.4 17.7 0.00 0.00 0.00 46 1011.6
20260906222014 37 128 8.0 17.7 0.00 0.00 0.00 44 1011.7
20260906221531 37 122 8.0 17.7 0.00 0.00 0.00 43 1011.6
20260906221014 37 184 3.2 16.1 0.00 0.00 0.00 44 1011.6
20260906220514 37 224 1.6 22.5 0.00 0.00 0.00 44 1011.6
20260906220035 37 111 9.7 22.5 0.00 0.00 0.00 44 1011.5
20260906215518 37 157 4.8 17.7 0.00 0.00 0.00 45 1011.6
20260906215003 37 135 3.2 20.9 0.00 0.00 0.00 44 1011.7
20260906214519 37 89 8.0 20.9 0.00 0.00 0.00 44 1011.6
20260906214005 37 161 4.8 17.7 0.00 0.00 0.00 45 1011.7
20260906213508 37 134 6.4 16.1 0.00 0.00 0.00 44 1011.8
20260906213021 37 150 8.0 17.7 0.00 0.00 0.00 44 1011.8
20260906212510 37 158 4.8 17.7 0.00 0.00 0.00 44 1011.9
20260906212010 37 135 1.6 22.5 0.00 0.00 0.00 44 1012.0
20260906211524 37 164 3.2 22.5 0.00 0.00 0.00 43 1012.0
20260906211015 37 96 6.4 17.7 0.00 0.00 0.00 45 1012.1
20260906210514 37 111 3.2 17.7 0.00 0.00 0.00 46 1012.2
20260906210032 37 169 3.2 17.7 0.00 0.00 0.00 45 1012.3
20260906205516 37 149 4.8 17.7 0.00 0.00 0.00 46 1012.4
20260906205015 37 127 8.0 17.7 0.00 0.00 0.00 46 1012.4
20260906204532 36 180 0.0 16.1 0.00 0.00 0.00 47 1012.5
20260906204014 36 135 4.8 20.9 0.00 0.00 0.00 48 1012.7
20260906203504 37 116 8.0 20.9 0.00 0.00 0.00 48 1012.7
20260906203016 37 153 3.2 17.7 0.00 0.00 0.00 47 1012.8
20260906202509 37 121 4.8 17.7 0.00 0.00 0.00 47 1012.8
20260906202007 37 122 6.4 16.1 0.00 0.00 0.00 47 1012.9
20260906201521 36 130 3.2 14.5 0.00 0.00 0.00 46 1012.9
20260906201010 36 92 6.4 16.1 0.00 0.00 0.00 46 1012.9
20260906200511 37 82 8.0 19.3 0.00 0.00 0.00 46 1012.9
20260906200028 37 117 11.3 19.3 0.00 0.00 0.00 46 1013.0
20260906195514 37 171 4.8 16.1 0.00 0.00 0.00 47 1013.1
20260906195012 36 153 3.2 19.3 0.00 0.00 0.00 48 1013.1
20260906194538 36 127 8.0 19.3 0.00 0.00 0.00 47 1013.2
20260906194018 36 138 4.8 17.7 0.00 0.00 0.00 46 1013.2
20260906193516 36 153 4.8 14.5 0.00 0.00 0.00 48 1013.2
20260906193031 36 126 4.8 17.7 0.00 0.00 0.00 48 1013.2
20260906192517 36 119 1.6 17.7 0.00 0.00 0.00 47 1013.3
20260906192007 36 123 1.6 11.3 0.00 0.00 0.00 48 1013.4
20260906191516 36 162 1.6 12.9 0.00 0.00 0.00 49 1013.5
20260906191009 36 184 0.0 12.9 0.00 0.00 0.00 50 1013.5
20260906190511 36 111 4.8 12.9 0.00 0.00 0.00 48 1013.5
20260906190029 36 165 1.6 14.5 0.00 0.00 0.00 48 1013.5
20260906185514 36 157 0.0 14.5 0.00 0.00 0.00 49 1013.6
20260906185012 37 120 6.4 14.5 0.00 0.00 0.00 48 1013.7
20260906184537 37 207 0.0 12.9 0.00 0.00 0.00 48 1013.7
20260906184012 38 202 1.6 11.3 0.00 0.00 0.00 47 1013.8
20260906183516 37 171 1.6 16.1 0.00 0.00 0.00 49 1013.8
20260906183035 37 165 3.2 16.1 0.00 0.00 0.00 49 1013.8
20260906182515 37 148 6.4 16.1 0.00 0.00 0.00 49 1013.9
20260906182021 37 201 1.6 16.1 0.00 0.00 0.00 49 1014.0
20260906181552 37 142 0.0 16.1 0.00 0.00 0.00 50 1014.1
20260906181018 37 170 0.0 12.9 0.00 0.00 0.00 50 1014.2
20260906180508 37 211 0.0 12.9 0.00 0.00 0.00 50 1014.2
20260906180021 37 153 4.8 12.9 0.00 0.00 0.00 50 1014.3
20260906175508 37 198 0.0 14.5 0.00 0.00 0.00 50 1014.4
20260906175011 37 165 3.2 14.5 0.00 0.00 0.00 51 1014.5
20260906174528 36 182 0.0 11.3 0.00 0.00 0.00 51 1014.5
20260906174012 36 219 1.6 11.3 0.00 0.00 0.00 52 1014.6
20260906173511 36 157 0.0 11.3 0.00 0.00 0.00 51 1014.7
20260906173029 36 196 0.0 11.3 0.00 0.00 0.00 53 1014.8
20260906172516 36 190 1.6 9.7 0.00 0.00 0.00 53 1014.9
20260906172015 36 215 0.0 11.3 0.00 0.00 0.00 55 1015.0
20260906171535 35 246 0.0 11.3 0.00 0.00 0.00 55 1015.0
20260906171018 35 207 0.0 11.3 0.00 0.00 0.00 55 1015.0
20260906170514 35 167 4.8 11.3 0.00 0.00 0.00 56 1015.1
20260906170030 35 150 0.0 4.8 0.00 0.00 0.00 56 1015.1
20260906165519 35 173 0.0 11.3 0.00 0.00 0.00 57 1015.2
20260906165008 35 154 1.6 11.3 0.00 0.00 0.00 57 1015.3
20260906164523 35 178 0.0 6.4 0.00 0.00 0.00 59 1015.3
20260906164011 34 232 0.0 6.4 0.00 0.00 0.00 59 1015.2
20260906163510 34 181 1.6 11.3 0.00 0.00 0.00 61 1015.2
20260906163040 33 207 0.0 12.9 0.00 0.00 0.00 61 1015.2
20260906162500 34 116 6.4 16.1 0.00 0.00 0.00 60 1015.3
20260906162001 34 119 4.8 16.1 0.00 0.00 0.00 60 1015.4
20260906161509 33 157 1.6 8.0 0.00 0.00 0.00 61 1015.3
20260906161005 33 157 0.0 8.0 0.00 0.00 0.00 62 1015.3
20260906160503 33 172 0.0 9.7 0.00 0.00 0.00 64 1015.3
20260906160015 33 146 1.6 9.7 0.00 0.00 0.00 65 1015.4
20260906155506 32 165 0.0 11.3 0.00 0.00 0.00 66 1015.4
20260906155005 32 167 1.6 11.3 0.00 0.00 0.00 67 1015.4
20260906154520 32 128 1.6 9.7 0.00 0.00 0.00 67 1015.4
20260906154010 32 139 3.2 11.3 0.00 0.00 0.00 68 1015.3
20260906153512 31 115 0.0 11.3 0.00 0.00 0.00 69 1015.2
20260906153031 31 115 1.6 9.7 0.00 0.00 0.00 69 1015.2
20260906152512 31 130 0.0 8.0 0.00 0.00 0.00 70 1015.1
20260906152003 31 128 0.0 8.0 0.00 0.00 0.00 70 1015.1
20260906151507 31 128 1.6 8.0 0.00 0.00 0.00 70 1015.1
20260906151005 31 165 1.6 8.0 0.00 0.00 0.00 71 1015.1
20260906150503 31 144 0.0 8.0 0.00 0.00 0.00 70 1015.1
20260906150013 31 145 1.6 8.0 0.00 0.00 0.00 72 1015.1
20260906145503 31 148 0.0 8.0 0.00 0.00 0.00 72 1015.2
20260906145006 31 154 0.0 8.0 0.00 0.00 0.00 72 1015.2
20260906144516 31 158 1.6 8.0 0.00 0.00 0.00 71 1015.2
20260906144009 31 165 0.0 8.0 0.00 0.00 0.00 72 1015.2
20260906143510 30 167 0.0 8.0 0.00 0.00 0.00 74 1015.3
20260906143021 30 168 0.0 6.4 0.00 0.00 0.00 74 1015.2
20260906142510 30 164 0.0 6.4 0.00 0.00 0.00 76 1015.2
20260906142010 30 165 0.0 3.2 0.00 0.00 0.00 77 1015.2
20260906141526 29 163 0.0 8.0 0.00 0.00 0.00 79 1015.2
20260906141018 28 165 0.0 8.0 0.00 0.00 0.00 80 1015.1
20260906140504 28 165 0.0 8.0 0.00 0.00 0.00 82 1015.1
20260906140014 28 175 1.6 8.0 0.00 0.00 0.00 82 1015.0
20260906135502 28 202 0.0 6.4 0.00 0.00 0.00 83 1014.9
20260906135003 27 204 0.0 0.0 0.00 0.00 0.00 84 1014.9
20260906134510 27 205 0.0 0.0 0.00 0.00 0.00 84 1014.8
20260906134007 27 205 0.0 1.6 0.00 0.00 0.00 85 1014.9
20260906133507 27 205 0.0 3.2 0.00 0.00 0.00 85 1014.9
20260906133018 27 207 0.0 3.2 0.00 0.00 0.00 85 1015.0
20260906132508 27 207 0.0 3.2 0.00 0.00 0.00 86 1015.0
20260906132008 27 207 0.0 1.6 0.00 0.00 0.00 88 1014.9
20260906131523 26 207 0.0 1.6 0.00 0.00 0.00 89 1014.9
20260906131011 26 207 0.0 1.6 0.00 0.00 0.00 90 1014.9
20260906130513 26 207 0.0 3.2 0.00 0.00 0.00 91 1014.8
20260906130027 25 207 0.0 3.2 0.00 0.00 0.00 91 1014.7
20260906125515 25 207 0.0 3.2 0.00 0.00 0.00 92 1014.7
20260906125001 25 207 0.0 0.0 0.00 0.00 0.00 93 1014.6
20260906124510 25 207 0.0 0.0 0.00 0.00 0.00 93 1014.6
20260906124003 25 207 0.0 0.0 0.00 0.00 0.00 93 1014.5
20260906123506 25 207 0.0 0.0 0.00 0.00 0.00 93 1014.5
20260906123018 24 207 0.0 0.0 0.00 0.00 0.00 93 1014.5
20260906122506 24 207 0.0 0.0 0.00 0.00 0.00 92 1014.4
20260906122006 24 207 0.0 0.0 0.00 0.00 0.00 92 1014.4
20260906121525 24 207 0.0 0.0 0.00 0.00 0.00 92 1014.5
20260906121011 24 207 0.0 0.0 0.00 0.00 0.00 92 1014.4
20260906120512 24 207 0.0 0.0 0.00 0.00 0.00 92 1014.4
20260906120025 24 207 0.0 0.0 0.00 0.00 0.00 92 1014.3
20260906115513 25 207 0.0 0.0 0.00 0.00 0.00 92 1014.3
20260906115015 25 207 0.0 1.6 0.00 0.00 0.00 92 1014.3
20260906114541 25 207 0.0 1.6 0.00 0.00 0.00 91 1014.2
20260906114011 25 207 0.0 1.6 0.00 0.00 0.00 91 1014.3
20260906113502 25 207 0.0 0.0 0.00 0.00 0.00 91 1014.3
20260906113012 25 207 0.0 0.0 0.00 0.00 0.00 91 1014.2
20260906112506 25 207 0.0 0.0 0.00 0.00 0.00 91 1014.2
20260906112006 25 207 0.0 0.0 0.00 0.00 0.00 91 1014.1
20260906111523 25 207 0.0 0.0 0.00 0.00 0.00 90 1014.1
20260906111008 25 207 0.0 0.0 0.00 0.00 0.00 90 1014.1
20260906110510 25 207 0.0 0.0 0.00 0.00 0.00 90 1014.0
20260906110020 25 207 0.0 0.0 0.00 0.00 0.00 90 1014.0
20260906105511 25 207 0.0 0.0 0.00 0.00 0.00 90 1014.0
20260906105013 25 207 0.0 0.0 0.00 0.00 0.00 90 1013.9
20260906104525 25 207 0.0 0.0 0.00 0.00 0.00 89 1013.9
20260906104013 25 207 0.0 0.0 0.00 0.00 0.00 90 1014.0
20260906103514 25 207 0.0 0.0 0.00 0.00 0.00 90 1013.9
20260906103029 25 207 0.0 0.0 0.00 0.00 0.00 89 1013.9
20260906102514 25 207 0.0 0.0 0.00 0.00 0.00 89 1013.8
20260906102006 25 207 0.0 0.0 0.00 0.00 0.00 89 1013.8
20260906101512 25 207 0.0 0.0 0.00 0.00 0.00 88 1013.6
20260906101010 25 207 0.0 0.0 0.00 0.00 0.00 88 1013.6
20260906100511 25 207 0.0 0.0 0.00 0.00 0.00 88 1013.7
20260906100018 26 207 0.0 0.0 0.00 0.00 0.00 88 1013.6
20260906095510 26 207 0.0 0.0 0.00 0.00 0.00 88 1013.6
20260906095011 26 207 0.0 0.0 0.00 0.00 0.00 88 1013.5
20260906094524 26 207 0.0 1.6 0.00 0.00 0.00 88 1013.4
20260906094010 26 207 0.0 3.2 0.00 0.00 0.00 88 1013.3
20260906093512 26 207 0.0 3.2 0.00 0.00 0.00 88 1013.3
20260906093028 26 207 0.0 3.2 0.00 0.00 0.00 88 1013.2
20260906092515 26 207 0.0 4.8 0.00 0.00 0.00 88 1013.1
20260906092016 26 207 0.0 4.8 0.00 0.00 0.00 88 1013.1
20260906091534 26 207 0.0 0.0 0.00 0.00 0.00 88 1013.1
20260906091016 26 207 0.0 0.0 0.00 0.00 0.00 87 1013.1
20260906090505 26 207 0.0 0.0 0.00 0.00 0.00 87 1013.2
20260906090017 26 207 0.0 0.0 0.00 0.00 0.00 87 1013.2
20260906085508 26 207 0.0 0.0 0.00 0.00 0.00 87 1013.1
20260906085008 26 207 0.0 3.2 0.00 0.00 0.00 87 1013.0
20260906084524 26 207 0.0 4.8 0.00 0.00 0.00 87 1012.9
20260906084011 26 207 0.0 4.8 0.00 0.00 0.00 87 1012.9
20260906083511 26 207 0.0 1.6 0.00 0.00 0.00 86 1012.9
20260906083029 26 207 0.0 3.2 0.00 0.00 0.00 86 1013.0
20260906082514 26 207 0.0 3.2 0.00 0.00 0.00 86 1013.0
20260906082016 26 207 0.0 1.6 0.00 0.00 0.00 86 1013.1
20260906081537 26 207 0.0 1.6 0.00 0.00 0.00 86 1013.1
20260906081014 26 207 0.0 0.0 0.00 0.00 0.00 86 1013.2
20260906080519 26 207 0.0 0.0 0.00 0.00 0.00 85 1013.2
20260906080033 26 207 0.0 0.0 0.00 0.00 0.00 85 1013.3
20260906075519 26 207 0.0 0.0 0.00 0.00 0.00 85 1013.3
20260906075009 26 207 0.0 0.0 0.00 0.00 0.00 85 1013.2
20260906074517 26 207 0.0 1.6 0.00 0.00 0.00 85 1013.3
20260906074019 26 207 0.0 1.6 0.00 0.00 0.00 84 1013.4
20260906073512 26 207 0.0 1.6 0.00 0.00 0.00 84 1013.3
20260906073024 26 205 0.0 1.6 0.00 0.00 0.00 84 1013.3
20260906072503 27 205 0.0 1.6 0.00 0.00 0.00 84 1013.3
20260906072002 27 205 0.0 1.6 0.00 0.00 0.00 83 1013.3
20260906071504 27 205 0.0 0.0 0.00 0.00 0.00 83 1013.3
20260906071004 27 205 0.0 0.0 0.00 0.00 0.00 83 1013.3
20260906070504 27 205 0.0 0.0 0.00 0.00 0.00 82 1013.3
20260906070008 27 205 0.0 1.6 0.00 0.00 0.00 82 1013.3
20260906065505 27 205 0.0 1.6 0.00 0.00 0.00 82 1013.2
20260906065006 27 205 0.0 1.6 0.00 0.00 0.00 82 1013.3
20260906064523 27 205 0.0 1.6 0.00 0.00 0.00 81 1013.3
20260906064008 27 205 0.0 4.8 0.00 0.00 0.00 81 1013.2
20260906063509 27 206 0.0 4.8 0.00 0.00 0.00 81 1013.2
20260906063020 27 205 0.0 4.8 0.00 0.00 0.00 80 1013.2
20260906062509 27 201 0.0 4.8 0.00 0.00 0.00 80 1013.4
20260906062003 27 196 0.0 6.4 0.00 0.00 0.00 80 1013.3
20260906061504 27 174 0.0 6.4 0.00 0.00 0.00 79 1013.4
20260906061002 27 198 0.0 4.8 0.00 0.00 0.00 79 1013.6
20260906060504 27 199 0.0 4.8 0.00 0.00 0.00 79 1013.6
20260906060010 27 200 0.0 4.8 0.00 0.00 0.00 78 1013.6
20260906055503 27 201 0.0 4.8 0.00 0.00 0.00 78 1013.7
20260906055006 27 200 0.0 4.8 0.00 0.00 0.00 78 1013.7
20260906054512 28 197 0.0 6.4 0.00 0.00 0.00 77 1013.7
20260906054003 28 190 0.0 9.7 0.00 0.00 0.00 77 1013.7
20260906053508 28 185 0.0 9.7 0.00 0.00 0.00 77 1013.7
20260906053017 28 200 0.0 6.4 0.00 0.00 0.00 76 1013.6
20260906052506 28 200 0.0 6.4 0.00 0.00 0.00 76 1013.7
20260906052010 28 217 0.0 3.2 0.00 0.00 0.00 76 1013.5
20260906051522 28 218 0.0 4.8 0.00 0.00 0.00 76 1013.5
20260906051012 28 238 0.0 4.8 0.00 0.00 0.00 76 1013.5
20260906050502 28 157 0.0 6.4 0.00 0.00 0.00 76 1013.5
20260906050012 28 192 0.0 6.4 0.00 0.00 0.00 76 1013.6
20260906045507 28 234 0.0 1.6 0.00 0.00 0.00 76 1013.4
20260906045005 28 236 0.0 1.6 0.00 0.00 0.00 76 1013.3
20260906044507 28 236 0.0 3.2 0.00 0.00 0.00 76 1013.2
20260906044007 28 236 0.0 3.2 0.00 0.00 0.00 76 1013.2
20260906043509 28 219 0.0 1.6 0.00 0.00 0.00 75 1013.3
20260906043015 28 217 0.0 1.6 0.00 0.00 0.00 76 1013.3
20260906042503 28 217 0.0 1.6 0.00 0.00 0.00 75 1013.5
20260906042008 28 217 0.0 3.2 0.00 0.00 0.00 75 1013.5
20260906041526 28 217 0.0 3.2 0.00 0.00 0.00 75 1013.5
20260906041007 28 217 0.0 3.2 0.00 0.00 0.00 75 1013.7
20260906040511 28 220 0.0 3.2 0.00 0.00 0.00 74 1013.7
20260906040034 29 221 0.0 3.2 0.00 0.00 0.00 75 1013.7
20260906035515 29 222 0.0 4.8 0.00 0.00 0.00 74 1013.6
20260906035002 29 225 0.0 4.8 0.00 0.00 0.00 74 1013.6
20260906034504 29 232 0.0 4.8 0.00 0.00 0.00 74 1013.5
20260906034003 29 207 0.0 4.8 0.00 0.00 0.00 74 1013.5
20260906033503 29 183 0.0 4.8 0.00 0.00 0.00 74 1013.5
20260906033009 29 209 0.0 4.8 0.00 0.00 0.00 73 1013.4
20260906032503 29 211 0.0 1.6 0.00 0.00 0.00 73 1013.5
20260906032004 29 211 0.0 1.6 0.00 0.00 0.00 73 1013.5
20260906031528 29 211 0.0 6.4 0.00 0.00 0.00 73 1013.5
20260906031008 29 211 0.0 6.4 0.00 0.00 0.00 72 1013.4
20260906030511 30 211 0.0 3.2 0.00 0.00 0.00 72 1013.4
20260906030020 30 217 0.0 4.8 0.00 0.00 0.00 72 1013.4
20260906025514 30 217 0.0 4.8 0.00 0.00 0.00 72 1013.3
20260906025014 30 194 0.0 4.8 0.00 0.00 0.00 72 1013.4
20260906024528 30 200 0.0 6.4 0.00 0.00 0.00 71 1013.4
20260906024014 30 192 0.0 9.7 0.00 0.00 0.00 71 1013.3
20260906023503 30 188 0.0 9.7 0.00 0.00 0.00 71 1013.2
20260906023008 30 201 0.0 6.4 0.00 0.00 0.00 70 1013.1
20260906022505 30 193 0.0 6.4 0.00 0.00 0.00 70 1013.1
20260906022004 30 166 0.0 9.7 0.00 0.00 0.00 70 1013.1
20260906021511 30 165 0.0 11.3 0.00 0.00 0.00 70 1012.9
20260906021003 30 202 1.6 11.3 0.00 0.00 0.00 69 1012.9
20260906020506 30 190 0.0 6.4 0.00 0.00 0.00 69 1012.9
20260906020018 30 196 0.0 4.8 0.00 0.00 0.00 68 1012.8
20260906015507 30 190 0.0 11.3 0.00 0.00 0.00 68 1012.7
20260906015011 30 206 1.6 12.9 0.00 0.00 0.00 68 1012.7
20260906014525 31 169 0.0 12.9 0.00 0.00 0.00 67 1012.7
20260906014014 31 155 1.6 9.7 0.00 0.00 0.00 67 1012.6
20260906013510 31 199 0.0 19.3 0.00 0.00 0.00 66 1012.5
20260906013026 31 180 0.0 19.3 0.00 0.00 0.00 66 1012.4
20260906012503 31 167 6.4 19.3 0.00 0.00 0.00 66 1012.3
20260906012002 31 171 3.2 17.7 0.00 0.00 0.00 65 1012.2
20260906011510 31 182 6.4 16.1 0.00 0.00 0.00 64 1012.1
20260906011003 31 167 3.2 16.1 0.00 0.00 0.00 64 1012.0
20260906010503 31 180 3.2 14.5 0.00 0.00 0.00 63 1012.0
20260906010013 32 144 3.2 19.3 0.00 0.00 0.00 62 1011.9
20260906005509 32 169 8.0 22.5 0.00 0.00 0.00 61 1011.9
20260906005008 32 138 8.0 22.5 0.00 0.00 0.00 60 1011.8
20260906004519 33 171 4.8 19.3 0.00 0.00 0.00 59 1011.9
20260906004009 33 167 8.0 24.1 0.00 0.00 0.00 58 1011.8
20260906003512 33 216 9.7 24.1 0.00 0.00 0.00 55 1011.8
20260906003024 34 130 3.2 22.5 0.00 0.00 0.00 55 1011.8
20260906002511 35 147 6.4 22.5 0.00 0.00 0.00 53 1011.8
20260906002011 35 150 8.0 19.3 0.00 0.00 0.00 54 1011.7
20260906001538 35 158 6.4 16.1 0.00 0.00 0.00 53 1011.7
20260906001005 36 192 4.8 22.5 0.00 0.00 0.00 52 1011.6
20260906000503 36 152 8.0 22.5 0.00 0.00 0.00 50 1011.5
20260906000013 36 108 9.7 20.9 0.00 0.00 0.00 49 1011.5
20260905235506 37 166 3.2 9.7 0.00 0.00 0.00 47 1011.4